Home   Weather   Mostar   Past weeks

Flag for Bosnia-Herzegovina Past Weather in Mostar, Bosnia-Herzegovina — Yesterday and Last 2 Weeks

Now
84 °F

Passing clouds.


Feels Like: 85 °F
Forecast: 68 / 89 °F
Wind: 5 mph from North

Location: Mostar

Current Time: Jun 27, 2017 at 10:58:35 am

Latest Report: Jun 27, 2017 at 10:00 am


Visibility: N/A

Pressure: 29.83 "Hg

Humidity: 48%

Dew Point: 63 °F

Location of MostarLocation

Past Weather in Mostar — Graph

°F

Mostar Temperature Yesterday

Maximum temperature yesterday: 95 °F (at 3:00 pm)
Minimum temperature yesterday: 70 °F (at 5:00 am)
Average temperature yesterday: 82 °F

High & Low Weather Summary for the Past Weeks

 TemperatureHumidityPressure
High99 °F (Jun 24, 3:00 pm)100% (Jun 15, 4:00 am)30.09 "Hg (Jun 15, 4:00 am)
Low57 °F (Jun 13, 5:30 am)24% (Jun 24, 5:00 pm)29.77 "Hg (Jun 25, 6:00 pm)
Average79 °F50%29.94 "Hg
* Reported Jun 12 9:00 am — Jun 27 9:30 am, Mostar. Weather by CustomWeather, © 2017

Note: Actual official high and low records may vary slightly from our data, if they occured in-between our weather recording intervals... More about our weather records

Advertising

Mostar Weather History for the Previous 24 Hours

Scroll right to see more
 ConditionsComfort  
Time TempWeatherWind HumidityBarometerVisibility
9:30 am
Tue, Jun 27
82 °FPassing clouds.2 mph51%29.83 "HgN/A
9:00 am81 °FPassing clouds.3 mph54%29.86 "HgN/A
8:30 am79 °FPassing clouds.1 mph58%29.86 "HgN/A
8:00 am77 °FPassing clouds.3 mph61%29.86 "HgN/A
7:30 am73 °FSunny.1 mph69%29.86 "Hg10 mi
7:00 am72 °FSunny.2 mph73%29.86 "Hg10 mi
6:00 am68 °FSunny.2 mph83%29.83 "Hg10 mi
5:00 am70 °FClear.2 mph78%29.83 "Hg10 mi
4:00 am68 °FPassing clouds.3 mph83%29.83 "HgN/A
3:00 am70 °FClear.2 mph78%29.83 "Hg10 mi
2:00 am72 °FClear.1 mph73%29.83 "Hg10 mi
1:00 am73 °FClear.2 mph69%29.83 "Hg10 mi
12:00 am75 °FClear.1 mph65%29.86 "Hg10 mi
11:00 pm
Mon, Jun 26
77 °FClear.2 mph61%29.83 "Hg10 mi
10:00 pm81 °FClear.2 mph54%29.83 "Hg10 mi
9:00 pm82 °FPassing clouds.7 mph55%29.80 "HgN/A
8:00 pm86 °FPassing clouds.9 mph49%29.80 "HgN/A
7:00 pm90 °FPassing clouds.10 mph41%29.77 "HgN/A
6:00 pm91 °FPassing clouds.9 mph38%29.77 "HgN/A
5:00 pm93 °FPassing clouds.8 mph34%29.77 "HgN/A
4:00 pm95 °FScattered clouds.10 mph30%29.80 "HgN/A
3:00 pm95 °FScattered clouds.10 mph32%29.80 "HgN/A
2:00 pm93 °FScattered clouds.9 mph28%29.80 "HgN/A
1:00 pm91 °FPassing clouds.6 mph34%29.83 "HgN/A
12:00 pm90 °FPassing clouds.3 mph38%29.83 "HgN/A
11:30 am88 °FPassing clouds.5 mph40%29.86 "HgN/A
11:00 am86 °FPassing clouds.3 mph46%29.86 "HgN/A
10:30 am84 °FPassing clouds.3 mph48%29.86 "HgN/A
10:00 am82 °FPassing clouds.3 mph55%29.86 "HgN/A
Weather by CustomWeather, © 2017

See weather overviewHow to use our weather pages